| time (UTC) | temp F | wind direction | speed MPH | gust MPH | rain 1hr in | rain 24hr in | rain mn in | humidity % | barometer mb |
| 20260903082239 | 52 | 95 | 5.0 | 10.0 | 0.00 | 0.00 | 0.00 | 43 | 1014.5 |
| 20260903081739 | 52 | 119 | 10.0 | 12.0 | 0.00 | 0.00 | 0.00 | 43 | 1014.7 |
| 20260903081230 | 52 | 106 | 8.0 | 11.0 | 0.00 | 0.00 | 0.00 | 44 | 1014.7 |
| 20260903080726 | 52 | 60 | 4.0 | 11.0 | 0.00 | 0.00 | 0.00 | 44 | 1014.7 |
| 20260903080223 | 52 | 86 | 6.0 | 10.0 | 0.00 | 0.00 | 0.00 | 45 | 1014.9 |
| 20260903075722 | 52 | 62 | 5.0 | 9.0 | 0.00 | 0.00 | 0.00 | 44 | 1014.8 |
| 20260903075217 | 53 | 61 | 4.0 | 8.0 | 0.00 | 0.00 | 0.00 | 43 | 1014.9 |
| 20260903074716 | 53 | 76 | 4.0 | 10.0 | 0.00 | 0.00 | 0.00 | 42 | 1014.8 |
| 20260903074212 | 53 | 77 | 6.0 | 12.0 | 0.00 | 0.00 | 0.00 | 43 | 1014.9 |
| 20260903073706 | 53 | 108 | 5.0 | 13.0 | 0.00 | 0.00 | 0.00 | 42 | 1014.7 |
| 20260903073201 | 53 | 73 | 8.0 | 11.0 | 0.00 | 0.00 | 0.00 | 41 | 1014.4 |
| 20260903072657 | 53 | 41 | 7.0 | 11.0 | 0.00 | 0.00 | 0.00 | 42 | 1014.4 |
| 20260903072154 | 53 | 79 | 8.0 | 12.0 | 0.00 | 0.00 | 0.00 | 42 | 1014.7 |
| 20260903071650 | 54 | 93 | 6.0 | 11.0 | 0.00 | 0.00 | 0.00 | 42 | 1014.3 |
| 20260903071145 | 54 | 89 | 3.0 | 12.0 | 0.00 | 0.00 | 0.00 | 42 | 1014.5 |
| 20260903070640 | 54 | 72 | 5.0 | 9.0 | 0.00 | 0.00 | 0.00 | 42 | 1014.7 |
| 20260903070135 | 54 | 50 | 12.0 | 12.0 | 0.00 | 0.00 | 0.00 | 41 | 1014.5 |
| 20260903065635 | 54 | 79 | 8.0 | 11.0 | 0.00 | 0.00 | 0.00 | 42 | 1014.7 |
| 20260903065129 | 55 | 51 | 4.0 | 11.0 | 0.00 | 0.00 | 0.00 | 40 | 1014.5 |
| 20260903064624 | 55 | 109 | 6.0 | 15.0 | 0.00 | 0.00 | 0.00 | 40 | 1014.3 |
| 20260903064119 | 55 | 92 | 6.0 | 11.0 | 0.00 | 0.00 | 0.00 | 41 | 1014.4 |
| 20260903063615 | 55 | 76 | 7.0 | 13.0 | 0.00 | 0.00 | 0.00 | 41 | 1014.4 |
| 20260903063110 | 55 | 76 | 6.0 | 10.0 | 0.00 | 0.00 | 0.00 | 41 | 1014.4 |
| 20260903062605 | 55 | 68 | 4.0 | 7.0 | 0.00 | 0.00 | 0.00 | 42 | 1014.4 |
| 20260903062101 | 55 | 69 | 9.0 | 13.0 | 0.00 | 0.00 | 0.00 | 41 | 1014.2 |
| 20260903061556 | 55 | 72 | 4.0 | 9.0 | 0.00 | 0.00 | 0.00 | 40 | 1014.3 |
| 20260903061055 | 56 | 46 | 3.0 | 8.0 | 0.00 | 0.00 | 0.00 | 41 | 1014.3 |
| 20260903060555 | 56 | 59 | 7.0 | 8.0 | 0.00 | 0.00 | 0.00 | 39 | 1014.3 |
| 20260903060050 | 56 | 56 | 6.0 | 8.0 | 0.00 | 0.00 | 0.00 | 39 | 1014.3 |
| 20260903055547 | 56 | 57 | 6.0 | 10.0 | 0.00 | 0.00 | 0.00 | 40 | 1014.2 |
| 20260903055047 | 56 | 55 | 7.0 | 9.0 | 0.00 | 0.00 | 0.00 | 40 | 1014.3 |
| 20260903054542 | 57 | 113 | 5.0 | 10.0 | 0.00 | 0.00 | 0.00 | 40 | 1014.2 |
| 20260903054037 | 57 | 48 | 5.0 | 12.0 | 0.00 | 0.00 | 0.00 | 40 | 1014.3 |
| 20260903053532 | 57 | 93 | 4.0 | 11.0 | 0.00 | 0.00 | 0.00 | 40 | 1014.2 |
| 20260903053029 | 57 | 54 | 4.0 | 13.0 | 0.00 | 0.00 | 0.00 | 39 | 1014.3 |
| 20260903052524 | 57 | 42 | 8.0 | 10.0 | 0.00 | 0.00 | 0.00 | 39 | 1014.2 |
| 20260903052020 | 58 | 32 | 6.0 | 9.0 | 0.00 | 0.00 | 0.00 | 39 | 1014.2 |
| 20260903051520 | 58 | 105 | 4.0 | 9.0 | 0.00 | 0.00 | 0.00 | 38 | 1014.3 |
| 20260903051016 | 58 | 28 | 3.0 | 7.0 | 0.00 | 0.00 | 0.00 | 40 | 1014.5 |
| 20260903050514 | 58 | 50 | 3.0 | 6.0 | 0.00 | 0.00 | 0.00 | 39 | 1014.3 |
| 20260903050010 | 59 | 70 | 3.0 | 7.0 | 0.00 | 0.00 | 0.00 | 38 | 1014.3 |
| 20260903045509 | 59 | 63 | 4.0 | 5.0 | 0.00 | 0.00 | 0.00 | 38 | 1014.4 |
| 20260903045006 | 59 | 33 | 4.0 | 5.0 | 0.00 | 0.00 | 0.00 | 38 | 1014.1 |
| 20260903044501 | 59 | 39 | 7.0 | 8.0 | 0.00 | 0.00 | 0.00 | 38 | 1014.4 |
| 20260903043957 | 60 | 75 | 5.0 | 7.0 | 0.00 | 0.00 | 0.00 | 38 | 1014.3 |
| 20260903043453 | 60 | 76 | 4.0 | 9.0 | 0.00 | 0.00 | 0.00 | 36 | 1014.3 |
| 20260903042951 | 60 | 61 | 6.0 | 6.0 | 0.00 | 0.00 | 0.00 | 36 | 1014.4 |
| 20260903042447 | 60 | 37 | 0.0 | 2.0 | 0.00 | 0.00 | 0.00 | 38 | 1014.3 |
| 20260903041943 | 59 | 66 | 3.0 | 5.0 | 0.00 | 0.00 | 0.00 | 39 | 1014.7 |
| 20260903041439 | 60 | 56 | 4.0 | 11.0 | 0.00 | 0.00 | 0.00 | 38 | 1013.9 |
| 20260903040934 | 60 | 59 | 2.0 | 5.0 | 0.00 | 0.00 | 0.00 | 39 | 1013.9 |
| 20260903040433 | 60 | 63 | 3.0 | 7.0 | 0.00 | 0.00 | 0.00 | 39 | 1013.8 |
| 20260903035929 | 60 | 35 | 5.0 | 7.0 | 0.00 | 0.00 | 0.00 | 37 | 1013.9 |
| 20260903035426 | 60 | 50 | 4.0 | 6.0 | 0.00 | 0.00 | 0.00 | 38 | 1013.7 |
| 20260903034926 | 60 | 52 | 4.0 | 6.0 | 0.00 | 0.00 | 0.00 | 39 | 1013.9 |
| 20260903034420 | 59 | 44 | 2.0 | 3.0 | 0.00 | 0.00 | 0.00 | 43 | 1013.7 |
| 20260903033916 | 59 | 60 | 3.0 | 4.0 | 0.00 | 0.00 | 0.00 | 44 | 1013.9 |
| 20260903033411 | 58 | 41 | 2.0 | 2.0 | 0.00 | 0.00 | 0.00 | 48 | 1013.8 |
| 20260903032906 | 59 | 75 | 2.0 | 2.0 | 0.00 | 0.00 | 0.00 | 49 | 1013.5 |
| 20260903032401 | 59 | 76 | 1.0 | 4.0 | 0.00 | 0.00 | 0.00 | 48 | 1013.6 |
| 20260903031856 | 59 | 57 | 2.0 | 2.0 | 0.00 | 0.00 | 0.00 | 50 | 1013.0 |
| 20260903031355 | 59 | 77 | 1.0 | 2.0 | 0.00 | 0.00 | 0.00 | 48 | 1013.4 |
| 20260903030851 | 60 | 11 | 1.0 | 2.0 | 0.00 | 0.00 | 0.00 | 46 | 1013.4 |
| 20260903030347 | 60 | 36 | 1.0 | 1.0 | 0.00 | 0.00 | 0.00 | 47 | 1013.2 |
| 20260903025843 | 61 | 26 | 1.0 | 2.0 | 0.00 | 0.00 | 0.00 | 45 | 1013.5 |
| 20260903025338 | 61 | 42 | 2.0 | 2.0 | 0.00 | 0.00 | 0.00 | 43 | 1013.2 |
| 20260903024837 | 61 | 78 | 0.0 | 2.0 | 0.00 | 0.00 | 0.00 | 43 | 1013.2 |
| 20260903024332 | 62 | 45 | 1.0 | 2.0 | 0.00 | 0.00 | 0.00 | 43 | 1013.2 |
| 20260903023828 | 62 | 328 | 1.0 | 1.0 | 0.00 | 0.00 | 0.00 | 38 | 1012.9 |
| 20260903023323 | 63 | 340 | 2.0 | 2.0 | 0.00 | 0.00 | 0.00 | 35 | 1013.0 |
| 20260903022818 | 64 | 1 | 1.0 | 2.0 | 0.00 | 0.00 | 0.00 | 33 | 1013.0 |
| 20260903022317 | 65 | 356 | 2.0 | 2.0 | 0.00 | 0.00 | 0.00 | 34 | 1012.8 |
| 20260903021811 | 66 | 24 | 2.0 | 2.0 | 0.00 | 0.00 | 0.00 | 34 | 1012.9 |
| 20260903021307 | 67 | 3 | 2.0 | 2.0 | 0.00 | 0.00 | 0.00 | 29 | 1013.0 |
| 20260903020807 | 68 | 346 | 2.0 | 2.0 | 0.00 | 0.00 | 0.00 | 30 | 1013.1 |
| 20260903020307 | 69 | 9 | 2.0 | 2.0 | 0.00 | 0.00 | 0.00 | 30 | 1012.7 |
| 20260903015802 | 70 | 345 | 1.0 | 1.0 | 0.00 | 0.00 | 0.00 | 26 | 1012.8 |
| 20260903015257 | 71 | 224 | 0.0 | 2.0 | 0.00 | 0.00 | 0.00 | 25 | 1012.5 |
| 20260903014752 | 71 | 248 | 2.0 | 2.0 | 0.00 | 0.00 | 0.00 | 23 | 1012.7 |
| 20260903014247 | 72 | 211 | 0.0 | 2.0 | 0.00 | 0.00 | 0.00 | 24 | 1012.9 |
| 20260903013742 | 72 | 207 | 2.0 | 2.0 | 0.00 | 0.00 | 0.00 | 23 | 1012.9 |
| 20260903013241 | 73 | 320 | 2.0 | 3.0 | 0.00 | 0.00 | 0.00 | 25 | 1012.8 |
| 20260903012740 | 73 | 295 | 3.0 | 3.0 | 0.00 | 0.00 | 0.00 | 26 | 1012.8 |
| 20260903012239 | 74 | 296 | 1.0 | 4.0 | 0.00 | 0.00 | 0.00 | 23 | 1012.5 |
| 20260903011733 | 75 | 254 | 4.0 | 4.0 | 0.00 | 0.00 | 0.00 | 21 | 1012.9 |
| 20260903011228 | 75 | 303 | 2.0 | 6.0 | 0.00 | 0.00 | 0.00 | 22 | 1012.9 |
| 20260903010724 | 75 | 245 | 2.0 | 5.0 | 0.00 | 0.00 | 0.00 | 21 | 1012.5 |
| 20260903010223 | 75 | 274 | 1.0 | 4.0 | 0.00 | 0.00 | 0.00 | 23 | 1013.0 |
| 20260903005722 | 75 | 341 | 2.0 | 5.0 | 0.00 | 0.00 | 0.00 | 25 | 1012.7 |
| 20260903005217 | 76 | 316 | 3.0 | 4.0 | 0.00 | 0.00 | 0.00 | 25 | 1012.8 |
| 20260903004713 | 76 | 298 | 2.0 | 3.0 | 0.00 | 0.00 | 0.00 | 25 | 1012.9 |
| 20260903004209 | 77 | 308 | 2.0 | 4.0 | 0.00 | 0.00 | 0.00 | 23 | 1012.8 |
| 20260903003703 | 77 | 294 | 3.0 | 5.0 | 0.00 | 0.00 | 0.00 | 21 | 1012.8 |
| 20260903003159 | 78 | 277 | 3.0 | 6.0 | 0.00 | 0.00 | 0.00 | 22 | 1012.9 |
| 20260903002653 | 80 | 234 | 4.0 | 5.0 | 0.00 | 0.00 | 0.00 | 20 | 1012.9 |
| 20260903002148 | 80 | 153 | 5.0 | 8.0 | 0.00 | 0.00 | 0.00 | 21 | 1012.9 |
| 20260903001643 | 80 | 272 | 4.0 | 5.0 | 0.00 | 0.00 | 0.00 | 22 | 1013.0 |
| 20260903001142 | 80 | 286 | 2.0 | 4.0 | 0.00 | 0.00 | 0.00 | 22 | 1013.1 |
| 20260903000638 | 80 | 227 | 3.0 | 6.0 | 0.00 | 0.00 | 0.00 | 21 | 1013.1 |
| 20260903000132 | 81 | 256 | 3.0 | 4.0 | 0.00 | 0.00 | 0.00 | 21 | 1013.1 |
| 20260902235630 | 82 | 249 | 6.0 | 6.0 | 0.00 | 0.00 | 0.00 | 23 | 1013.1 |
| 20260902235126 | 82 | 281 | 0.0 | 4.0 | 0.00 | 0.00 | 0.00 | 21 | 1013.2 |
| 20260902234619 | 82 | 287 | 3.0 | 5.0 | 0.00 | 0.00 | 0.00 | 20 | 1013.0 |
| 20260902234118 | 82 | 291 | 2.0 | 4.0 | 0.00 | 0.00 | 0.00 | 22 | 1013.1 |
| 20260902233613 | 82 | 272 | 3.0 | 5.0 | 0.00 | 0.00 | 0.00 | 21 | 1013.4 |
| 20260902233108 | 82 | 249 | 5.0 | 6.0 | 0.00 | 0.00 | 0.00 | 22 | 1013.2 |
| 20260902232608 | 81 | 283 | 5.0 | 10.0 | 0.00 | 0.00 | 0.00 | 21 | 1013.2 |
| 20260902232101 | 82 | 292 | 3.0 | 8.0 | 0.00 | 0.00 | 0.00 | 21 | 1013.4 |
| 20260902231555 | 82 | 284 | 4.0 | 12.0 | 0.00 | 0.00 | 0.00 | 22 | 1013.1 |
| 20260902231050 | 83 | 193 | 2.0 | 3.0 | 0.00 | 0.00 | 0.00 | 21 | 1013.2 |
| 20260902230545 | 81 | 247 | 3.0 | 9.0 | 0.00 | 0.00 | 0.00 | 21 | 1013.1 |
| 20260902230044 | 82 | 226 | 3.0 | 12.0 | 0.00 | 0.00 | 0.00 | 22 | 1013.6 |
| 20260902225540 | 83 | 312 | 3.0 | 5.0 | 0.00 | 0.00 | 0.00 | 23 | 1013.4 |
| 20260902225039 | 82 | 244 | 4.0 | 6.0 | 0.00 | 0.00 | 0.00 | 21 | 1013.4 |
| 20260902224538 | 82 | 280 | 2.0 | 6.0 | 0.00 | 0.00 | 0.00 | 24 | 1013.2 |
| 20260902224034 | 82 | 245 | 6.0 | 11.0 | 0.00 | 0.00 | 0.00 | 20 | 1013.6 |
| 20260902223530 | 82 | 281 | 2.0 | 9.0 | 0.00 | 0.00 | 0.00 | 22 | 1013.5 |
| 20260902223029 | 82 | 171 | 3.0 | 8.0 | 0.00 | 0.00 | 0.00 | 23 | 1013.6 |
| 20260902222528 | 82 | 266 | 7.0 | 8.0 | 0.00 | 0.00 | 0.00 | 23 | 1013.6 |
| 20260902222026 | 83 | 286 | 3.0 | 6.0 | 0.00 | 0.00 | 0.00 | 24 | 1013.5 |
| 20260902221521 | 82 | 240 | 5.0 | 10.0 | 0.00 | 0.00 | 0.00 | 22 | 1013.7 |
| 20260902221017 | 82 | 343 | 2.0 | 9.0 | 0.00 | 0.00 | 0.00 | 21 | 1013.8 |
| 20260902220512 | 83 | 219 | 7.0 | 13.0 | 0.00 | 0.00 | 0.00 | 20 | 1013.8 |
| 20260902220006 | 84 | 274 | 6.0 | 8.0 | 0.00 | 0.00 | 0.00 | 24 | 1013.9 |
| 20260902215503 | 83 | 290 | 3.0 | 6.0 | 0.00 | 0.00 | 0.00 | 24 | 1013.9 |
| 20260902214958 | 82 | 241 | 6.0 | 13.0 | 0.00 | 0.00 | 0.00 | 21 | 1014.1 |
| 20260902214457 | 83 | 265 | 5.0 | 16.0 | 0.00 | 0.00 | 0.00 | 22 | 1013.9 |
| 20260902213955 | 83 | 256 | 2.0 | 8.0 | 0.00 | 0.00 | 0.00 | 24 | 1014.1 |
| 20260902213452 | 83 | 293 | 2.0 | 4.0 | 0.00 | 0.00 | 0.00 | 25 | 1013.9 |
| 20260902212951 | 82 | 279 | 3.0 | 6.0 | 0.00 | 0.00 | 0.00 | 25 | 1013.9 |
| 20260902212447 | 82 | 241 | 4.0 | 11.0 | 0.00 | 0.00 | 0.00 | 23 | 1014.3 |
| 20260902211943 | 82 | 262 | 2.0 | 5.0 | 0.00 | 0.00 | 0.00 | 28 | 1014.3 |
| 20260902211439 | 82 | 225 | 6.0 | 8.0 | 0.00 | 0.00 | 0.00 | 25 | 1014.7 |
| 20260902210933 | 82 | 268 | 4.0 | 10.0 | 0.00 | 0.00 | 0.00 | 26 | 1014.4 |
| 20260902210428 | 82 | 259 | 6.0 | 9.0 | 0.00 | 0.00 | 0.00 | 27 | 1014.5 |
| 20260902205926 | 82 | 278 | 5.0 | 9.0 | 0.00 | 0.00 | 0.00 | 27 | 1014.8 |
| 20260902205422 | 82 | 261 | 6.0 | 7.0 | 0.00 | 0.00 | 0.00 | 26 | 1014.4 |
| 20260902204918 | 81 | 221 | 4.0 | 10.0 | 0.00 | 0.00 | 0.00 | 26 | 1014.8 |
| 20260902204417 | 82 | 269 | 3.0 | 9.0 | 0.00 | 0.00 | 0.00 | 28 | 1014.9 |
| 20260902203913 | 82 | 281 | 2.0 | 10.0 | 0.00 | 0.00 | 0.00 | 27 | 1014.9 |
| 20260902203408 | 82 | 242 | 2.0 | 11.0 | 0.00 | 0.00 | 0.00 | 25 | 1014.5 |
| 20260902202907 | 82 | 303 | 4.0 | 6.0 | 0.00 | 0.00 | 0.00 | 27 | 1014.5 |
| 20260902202403 | 81 | 180 | 2.0 | 7.0 | 0.00 | 0.00 | 0.00 | 25 | 1015.0 |
| 20260902201900 | 81 | 290 | 2.0 | 12.0 | 0.00 | 0.00 | 0.00 | 27 | 1015.1 |
| 20260902201359 | 81 | 250 | 3.0 | 12.0 | 0.00 | 0.00 | 0.00 | 26 | 1015.1 |
| 20260902200854 | 82 | 254 | 3.0 | 6.0 | 0.00 | 0.00 | 0.00 | 29 | 1014.8 |
| 20260902200350 | 81 | 238 | 5.0 | 15.0 | 0.00 | 0.00 | 0.00 | 25 | 1015.1 |
| 20260902195844 | 80 | 158 | 3.0 | 9.0 | 0.00 | 0.00 | 0.00 | 28 | 1015.1 |
| 20260902195344 | 80 | 316 | 4.0 | 7.0 | 0.00 | 0.00 | 0.00 | 29 | 1015.1 |
| 20260902194839 | 81 | 279 | 6.0 | 6.0 | 0.00 | 0.00 | 0.00 | 31 | 1015.4 |
| 20260902194338 | 80 | 330 | 3.0 | 14.0 | 0.00 | 0.00 | 0.00 | 29 | 1015.6 |
| 20260902193834 | 81 | 278 | 6.0 | 12.0 | 0.00 | 0.00 | 0.00 | 30 | 1015.5 |
| 20260902193330 | 80 | 306 | 3.0 | 6.0 | 0.00 | 0.00 | 0.00 | 29 | 1015.6 |
| 20260902192829 | 80 | 285 | 3.0 | 11.0 | 0.00 | 0.00 | 0.00 | 28 | 1015.5 |
| 20260902192328 | 80 | 295 | 7.0 | 9.0 | 0.00 | 0.00 | 0.00 | 30 | 1015.2 |
| 20260902191827 | 80 | 263 | 5.0 | 11.0 | 0.00 | 0.00 | 0.00 | 31 | 1015.6 |
| 20260902191323 | 80 | 256 | 5.0 | 6.0 | 0.00 | 0.00 | 0.00 | 30 | 1015.5 |
| 20260902190818 | 79 | 210 | 5.0 | 11.0 | 0.00 | 0.00 | 0.00 | 32 | 1015.7 |
| 20260902190317 | 78 | 249 | 7.0 | 15.0 | 0.00 | 0.00 | 0.00 | 31 | 1015.8 |
| 20260902185814 | 79 | 196 | 4.0 | 6.0 | 0.00 | 0.00 | 0.00 | 31 | 1015.7 |
| 20260902185309 | 78 | 248 | 6.0 | 14.0 | 0.00 | 0.00 | 0.00 | 34 | 1015.9 |
| 20260902184805 | 79 | 281 | 3.0 | 6.0 | 0.00 | 0.00 | 0.00 | 36 | 1015.8 |
| 20260902184300 | 78 | 269 | 3.0 | 6.0 | 0.00 | 0.00 | 0.00 | 38 | 1015.8 |
| 20260902183755 | 77 | 301 | 4.0 | 17.0 | 0.00 | 0.00 | 0.00 | 35 | 1016.2 |
| 20260902183252 | 78 | 294 | 6.0 | 10.0 | 0.00 | 0.00 | 0.00 | 35 | 1016.1 |
| 20260902182748 | 78 | 246 | 3.0 | 14.0 | 0.00 | 0.00 | 0.00 | 36 | 1015.9 |
| 20260902182244 | 78 | 245 | 5.0 | 8.0 | 0.00 | 0.00 | 0.00 | 37 | 1015.7 |
| 20260902181740 | 78 | 185 | 5.0 | 9.0 | 0.00 | 0.00 | 0.00 | 38 | 1016.2 |
| 20260902181240 | 77 | 245 | 4.0 | 13.0 | 0.00 | 0.00 | 0.00 | 36 | 1016.1 |
| 20260902180734 | 77 | 279 | 4.0 | 7.0 | 0.00 | 0.00 | 0.00 | 39 | 1015.9 |
| 20260902180225 | 77 | 228 | 9.0 | 9.0 | 0.00 | 0.00 | 0.00 | 39 | 1016.1 |
| 20260902175724 | 76 | 235 | 9.0 | 14.0 | 0.00 | 0.00 | 0.00 | 38 | 1016.3 |
| 20260902175221 | 77 | 296 | 3.0 | 4.0 | 0.00 | 0.00 | 0.00 | 42 | 1016.5 |
| 20260902174716 | 76 | 296 | 3.0 | 5.0 | 0.00 | 0.00 | 0.00 | 44 | 1016.3 |
| 20260902174212 | 76 | 248 | 4.0 | 6.0 | 0.00 | 0.00 | 0.00 | 41 | 1016.4 |
| 20260902173708 | 75 | 246 | 5.0 | 9.0 | 0.00 | 0.00 | 0.00 | 45 | 1016.4 |
| 20260902173203 | 76 | 203 | 9.0 | 9.0 | 0.00 | 0.00 | 0.00 | 45 | 1016.2 |
| 20260902172702 | 71 | 277 | 4.0 | 6.0 | 0.00 | 0.00 | 0.00 | 54 | 1016.4 |
| 20260902172201 | 72 | 267 | 2.0 | 4.0 | 0.00 | 0.00 | 0.00 | 55 | 1016.5 |
| 20260902171656 | 73 | 273 | 2.0 | 5.0 | 0.00 | 0.00 | 0.00 | 54 | 1016.5 |
| 20260902171153 | 76 | 287 | 4.0 | 5.0 | 0.00 | 0.00 | 0.00 | 51 | 1016.4 |
| 20260902170648 | 74 | 264 | 3.0 | 5.0 | 0.00 | 0.00 | 0.00 | 52 | 1016.4 |
| 20260902170143 | 73 | 344 | 1.0 | 5.0 | 0.00 | 0.00 | 0.00 | 53 | 1016.5 |
| 20260902165639 | 72 | 264 | 5.0 | 5.0 | 0.00 | 0.00 | 0.00 | 53 | 1016.5 |
| 20260902165138 | 72 | 212 | 6.0 | 9.0 | 0.00 | 0.00 | 0.00 | 52 | 1016.6 |
| 20260902164633 | 71 | 296 | 5.0 | 6.0 | 0.00 | 0.00 | 0.00 | 54 | 1016.9 |
| 20260902164132 | 71 | 271 | 2.0 | 5.0 | 0.00 | 0.00 | 0.00 | 55 | 1016.6 |
| 20260902163627 | 71 | 223 | 3.0 | 10.0 | 0.00 | 0.00 | 0.00 | 57 | 1016.5 |
| 20260902163127 | 70 | 293 | 4.0 | 14.0 | 0.00 | 0.00 | 0.00 | 56 | 1016.4 |
| 20260902162625 | 71 | 278 | 4.0 | 5.0 | 0.00 | 0.00 | 0.00 | 58 | 1016.1 |
| 20260902162120 | 73 | 260 | 3.0 | 6.0 | 0.00 | 0.00 | 0.00 | 58 | 1016.4 |
| 20260902161616 | 75 | 291 | 3.0 | 4.0 | 0.00 | 0.00 | 0.00 | 58 | 1016.2 |
| 20260902161112 | 75 | 270 | 1.0 | 4.0 | 0.00 | 0.00 | 0.00 | 56 | 1016.5 |
| 20260902160608 | 74 | 252 | 2.0 | 7.0 | 0.00 | 0.00 | 0.00 | 56 | 1016.3 |
| 20260902160103 | 73 | 164 | 2.0 | 10.0 | 0.00 | 0.00 | 0.00 | 56 | 1016.4 |
| 20260902155600 | 73 | 193 | 2.0 | 5.0 | 0.00 | 0.00 | 0.00 | 56 | 1016.3 |
| 20260902155059 | 75 | 277 | 3.0 | 5.0 | 0.00 | 0.00 | 0.00 | 58 | 1016.2 |
| 20260902154555 | 73 | 190 | 4.0 | 9.0 | 0.00 | 0.00 | 0.00 | 57 | 1016.2 |
| 20260902154050 | 73 | 228 | 2.0 | 6.0 | 0.00 | 0.00 | 0.00 | 61 | 1016.2 |
| 20260902153548 | 73 | 264 | 3.0 | 6.0 | 0.00 | 0.00 | 0.00 | 61 | 1016.3 |
| 20260902153044 | 73 | 242 | 0.0 | 2.0 | 0.00 | 0.00 | 0.00 | 60 | 1016.3 |
| 20260902152541 | 71 | 162 | 2.0 | 3.0 | 0.00 | 0.00 | 0.00 | 62 | 1016.2 |
| 20260902152036 | 71 | 18 | 2.0 | 3.0 | 0.00 | 0.00 | 0.00 | 63 | 1016.3 |
| 20260902151531 | 69 | 316 | 1.0 | 4.0 | 0.00 | 0.00 | 0.00 | 64 | 1016.1 |
| 20260902151025 | 69 | 311 | 1.0 | 3.0 | 0.00 | 0.00 | 0.00 | 66 | 1016.4 |
| 20260902150520 | 68 | 12 | 1.0 | 3.0 | 0.00 | 0.00 | 0.00 | 66 | 1016.3 |
| 20260902150015 | 66 | 82 | 2.0 | 4.0 | 0.00 | 0.00 | 0.00 | 70 | 1016.3 |
| 20260902145510 | 65 | 60 | 4.0 | 4.0 | 0.00 | 0.00 | 0.00 | 71 | 1016.3 |
| 20260902145005 | 64 | 46 | 2.0 | 4.0 | 0.00 | 0.00 | 0.00 | 74 | 1016.4 |
| 20260902144502 | 64 | 113 | 3.0 | 3.0 | 0.00 | 0.00 | 0.00 | 74 | 1016.2 |
| 20260902143956 | 62 | 47 | 2.0 | 5.0 | 0.00 | 0.00 | 0.00 | 76 | 1016.2 |
| 20260902143451 | 63 | 52 | 1.0 | 4.0 | 0.00 | 0.00 | 0.00 | 76 | 1016.3 |
| 20260902142947 | 62 | 31 | 3.0 | 5.0 | 0.00 | 0.00 | 0.00 | 76 | 1016.2 |
| 20260902142442 | 62 | 38 | 3.0 | 4.0 | 0.00 | 0.00 | 0.00 | 76 | 1016.1 |
| 20260902141937 | 61 | 38 | 1.0 | 5.0 | 0.00 | 0.00 | 0.00 | 78 | 1016.2 |
| 20260902141432 | 60 | 45 | 3.0 | 4.0 | 0.00 | 0.00 | 0.00 | 79 | 1016.1 |
| 20260902140931 | 60 | 64 | 2.0 | 4.0 | 0.00 | 0.00 | 0.00 | 81 | 1016.1 |
| 20260902140427 | 59 | 11 | 4.0 | 4.0 | 0.00 | 0.00 | 0.00 | 83 | 1016.1 |
| 20260902135927 | 57 | 48 | 2.0 | 6.0 | 0.00 | 0.00 | 0.00 | 86 | 1016.1 |
| 20260902135423 | 57 | 51 | 3.0 | 5.0 | 0.00 | 0.00 | 0.00 | 87 | 1015.7 |
| 20260902134921 | 56 | 100 | 4.0 | 4.0 | 0.00 | 0.00 | 0.00 | 88 | 1015.6 |
| 20260902134418 | 56 | 111 | 2.0 | 3.0 | 0.00 | 0.00 | 0.00 | 89 | 1015.7 |
| 20260902133913 | 55 | 63 | 2.0 | 5.0 | 0.00 | 0.00 | 0.00 | 89 | 1015.6 |
| 20260902133412 | 55 | 260 | 1.0 | 2.0 | 0.00 | 0.00 | 0.00 | 90 | 1015.6 |
| 20260902132907 | 55 | 80 | 1.0 | 1.0 | 0.00 | 0.00 | 0.00 | 90 | 1015.7 |
| 20260902132402 | 55 | 130 | 0.0 | 2.0 | 0.00 | 0.00 | 0.00 | 90 | 1015.5 |
| 20260902131858 | 55 | 49 | 2.0 | 2.0 | 0.00 | 0.00 | 0.00 | 90 | 1015.4 |
| 20260902131355 | 55 | 304 | 0.0 | 2.0 | 0.00 | 0.00 | 0.00 | 89 | 1015.5 |
| 20260902130853 | 55 | 69 | 2.0 | 2.0 | 0.00 | 0.00 | 0.00 | 89 | 1015.4 |
| 20260902130350 | 56 | 305 | 0.0 | 2.0 | 0.00 | 0.00 | 0.00 | 88 | 1015.4 |
| 20260902125844 | 56 | 256 | 1.0 | 5.0 | 0.00 | 0.00 | 0.00 | 87 | 1015.4 |
| 20260902125341 | 57 | 352 | 2.0 | 3.0 | 0.00 | 0.00 | 0.00 | 86 | 1015.4 |
| 20260902124837 | 57 | 48 | 4.0 | 5.0 | 0.00 | 0.00 | 0.00 | 86 | 1015.2 |
| 20260902124332 | 57 | 61 | 3.0 | 4.0 | 0.00 | 0.00 | 0.00 | 86 | 1015.5 |
| 20260902123827 | 57 | 62 | 3.0 | 4.0 | 0.00 | 0.00 | 0.00 | 86 | 1015.0 |
| 20260902123323 | 56 | 68 | 2.0 | 3.0 | 0.00 | 0.00 | 0.00 | 86 | 1015.0 |
| 20260902122822 | 57 | 36 | 2.0 | 3.0 | 0.00 | 0.00 | 0.00 | 86 | 1015.2 |
| 20260902122318 | 57 | 89 | 0.0 | 2.0 | 0.00 | 0.00 | 0.00 | 85 | 1015.2 |
| 20260902121817 | 57 | 77 | 2.0 | 3.0 | 0.00 | 0.00 | 0.00 | 84 | 1015.2 |
| 20260902121313 | 57 | 45 | 3.0 | 3.0 | 0.00 | 0.00 | 0.00 | 85 | 1015.4 |
| 20260902120808 | 57 | 162 | 0.0 | 1.0 | 0.00 | 0.00 | 0.00 | 85 | 1015.4 |
| 20260902120305 | 57 | 36 | 0.0 | 1.0 | 0.00 | 0.00 | 0.00 | 84 | 1014.9 |
| 20260902115800 | 57 | 354 | 1.0 | 2.0 | 0.00 | 0.00 | 0.00 | 84 | 1014.9 |
| 20260902115256 | 57 | 8 | 2.0 | 3.0 | 0.00 | 0.00 | 0.00 | 83 | 1014.9 |
| 20260902114752 | 57 | 40 | 2.0 | 2.0 | 0.00 | 0.00 | 0.00 | 83 | 1014.8 |
| 20260902114248 | 57 | 44 | 2.0 | 5.0 | 0.00 | 0.00 | 0.00 | 83 | 1014.7 |
| 20260902113747 | 57 | 68 | 1.0 | 3.0 | 0.00 | 0.00 | 0.00 | 83 | 1015.0 |
| 20260902113243 | 57 | 57 | 2.0 | 3.0 | 0.00 | 0.00 | 0.00 | 82 | 1015.0 |
| 20260902112742 | 57 | 18 | 3.0 | 4.0 | 0.00 | 0.00 | 0.00 | 82 | 1015.0 |
| 20260902112239 | 57 | 71 | 2.0 | 4.0 | 0.00 | 0.00 | 0.00 | 82 | 1015.1 |
| 20260902111734 | 57 | 84 | 4.0 | 5.0 | 0.00 | 0.00 | 0.00 | 83 | 1015.2 |
| 20260902111231 | 57 | 55 | 4.0 | 7.0 | 0.00 | 0.00 | 0.00 | 82 | 1015.0 |
| 20260902110726 | 57 | 57 | 3.0 | 4.0 | 0.00 | 0.00 | 0.00 | 82 | 1015.0 |
| 20260902110222 | 57 | 62 | 4.0 | 5.0 | 0.00 | 0.00 | 0.00 | 82 | 1015.1 |
| 20260902105716 | 57 | 46 | 2.0 | 3.0 | 0.00 | 0.00 | 0.00 | 82 | 1015.0 |
| 20260902105211 | 57 | 47 | 4.0 | 6.0 | 0.00 | 0.00 | 0.00 | 82 | 1015.2 |
| 20260902104706 | 57 | 82 | 4.0 | 5.0 | 0.00 | 0.00 | 0.00 | 82 | 1014.9 |
| 20260902104202 | 57 | 86 | 2.0 | 5.0 | 0.00 | 0.00 | 0.00 | 81 | 1015.1 |
| 20260902103702 | 57 | 44 | 4.0 | 4.0 | 0.00 | 0.00 | 0.00 | 82 | 1015.0 |
| 20260902103157 | 57 | 63 | 3.0 | 5.0 | 0.00 | 0.00 | 0.00 | 81 | 1015.0 |
| 20260902102652 | 57 | 58 | 2.0 | 5.0 | 0.00 | 0.00 | 0.00 | 81 | 1015.0 |
| 20260902102149 | 57 | 93 | 4.0 | 4.0 | 0.00 | 0.00 | 0.00 | 81 | 1015.1 |
| 20260902101645 | 57 | 115 | 3.0 | 6.0 | 0.00 | 0.00 | 0.00 | 81 | 1014.9 |
| 20260902101144 | 57 | 103 | 3.0 | 6.0 | 0.00 | 0.00 | 0.00 | 81 | 1015.1 |
| 20260902100639 | 57 | 78 | 1.0 | 4.0 | 0.00 | 0.00 | 0.00 | 81 | 1015.0 |
| 20260902100134 | 57 | 44 | 5.0 | 5.0 | 0.00 | 0.00 | 0.00 | 81 | 1015.4 |
| 20260902095633 | 57 | 336 | 0.0 | 3.0 | 0.00 | 0.00 | 0.00 | 81 | 1015.1 |
| 20260902095132 | 57 | 40 | 3.0 | 4.0 | 0.00 | 0.00 | 0.00 | 81 | 1015.1 |
| 20260902094627 | 57 | 82 | 3.0 | 5.0 | 0.00 | 0.00 | 0.00 | 81 | 1015.4 |
| 20260902094118 | 57 | 81 | 3.0 | 5.0 | 0.00 | 0.00 | 0.00 | 81 | 1015.4 |
| 20260902093611 | 57 | 27 | 2.0 | 2.0 | 0.00 | 0.00 | 0.00 | 81 | 1015.4 |
| 20260902093106 | 57 | 101 | 2.0 | 4.0 | 0.00 | 0.00 | 0.00 | 80 | 1015.5 |
| 20260902092600 | 57 | 76 | 2.0 | 6.0 | 0.00 | 0.00 | 0.00 | 80 | 1015.4 |
| 20260902092056 | 57 | 103 | 4.0 | 4.0 | 0.00 | 0.00 | 0.00 | 80 | 1015.4 |
| 20260902091551 | 57 | 42 | 3.0 | 4.0 | 0.00 | 0.00 | 0.00 | 80 | 1015.2 |
| 20260902091047 | 57 | 54 | 4.0 | 6.0 | 0.00 | 0.00 | 0.00 | 80 | 1015.2 |
| 20260902090542 | 57 | 75 | 2.0 | 5.0 | 0.00 | 0.00 | 0.00 | 80 | 1015.4 |
| 20260902090041 | 57 | 38 | 0.0 | 1.0 | 0.00 | 0.00 | 0.00 | 80 | 1015.4 |
| 20260902085535 | 57 | 39 | 3.0 | 4.0 | 0.00 | 0.00 | 0.00 | 80 | 1015.4 |
| 20260902085032 | 56 | 73 | 1.0 | 2.0 | 0.00 | 0.00 | 0.00 | 83 | 1015.6 |
| 20260902084528 | 56 | 278 | 2.0 | 2.0 | 0.00 | 0.00 | 0.00 | 83 | 1015.6 |
| 20260902084023 | 57 | 321 | 0.0 | 3.0 | 0.00 | 0.00 | 0.00 | 80 | 1015.4 |
| 20260902083518 | 57 | 59 | 3.0 | 5.0 | 0.00 | 0.00 | 0.00 | 78 | 1015.2 |
| 20260902083012 | 57 | 40 | 2.0 | 3.0 | 0.00 | 0.00 | 0.00 | 78 | 1015.6 |
| 20260902082508 | 57 | 37 | 4.0 | 7.0 | 0.00 | 0.00 | 0.00 | 79 | 1015.4 |